Palermo, Italy

4:03 AM CEST on July 27, 2017 (GMT +0200)
Punta Raisi

Weather History for LICJ - April, 2013

Change the Weather History Date:

Monday, April 1, 2013

  Actual Average Record
Temperature  
Mean Temperature 62 °F -  
Max Temperature 68 °F 65 °F 78 °F (2016)
Min Temperature 57 °F 55 °F 44 °F (1997)
Degree Days  
Heating Degree Days 2    
Growing Degree Days 12 (Base 50)    
Moisture  
Dew Point 50 °F    
Average Humidity 65    
Maximum Humidity 94    
Minimum Humidity 42    
Precipitation  
Precipitation 0.00 in 0.06 in - ()
Sea Level Pressure  
Sea Level Pressure 29.72 in    
Wind  
Wind Speed 15 mph ()    
Max Wind Speed 26 mph    
Max Gust Speed 33 mph    
Visibility 6.0 miles    
Events Rain    
Averages and records for this station are not official NWS values.
T = Trace of Precipitation, MM = Missing Value Source: Averaged Metar Reports

Daily Weather History Graph

Daily Weather History Graph

Search for Another Location

Airport or City:

Trip Planner

Search our weather history database for the weather conditions in past years. The results will help you decide how hot, cold, wet, or windy it might be!

Date:

Astronomy

Apr. 01, 2013 Rise Set
Actual Time 6:52 AM CEST 7:30 PM CEST
Civil Twilight 6:26 AM CEST 7:57 PM CEST
Nautical Twilight 5:54 AM CEST 8:28 PM CEST
Astronomical Twilight 5:22 AM CEST 9:01 PM CEST
Moon 12:17 AM CEST (4/1) 10:25 AM CEST (4/1)
Length of Visible Light 13h 31m
Length of Day
12h 38m
Waning Gibbous, 70% of the Moon is Illuminated
Apr 1
Waning Gibbous
Apr 3
Last Quarter
Apr 10
New
Apr 18
First Quarter
Apr 25
Full

Hourly Weather History & Observations

Time (CEST) Temp. Dew Point Humidity Pressure Visibility Wind Dir Wind Speed Gust Speed Precip Events Conditions
12:20 AM 60.8 °F 48.2 °F 63% 29.80 in 6.2 mi South 26.5 mph - N/A   Partly Cloudy
12:50 AM 60.8 °F 48.2 °F 63% 29.80 in 6.2 mi South 20.7 mph - N/A   Partly Cloudy
1:20 AM 60.8 °F 50.0 °F 68% 29.80 in 6.2 mi South 23.0 mph - N/A   Partly Cloudy
1:50 AM 60.8 °F 48.2 °F 63% 29.77 in 6.2 mi South 19.6 mph - N/A   Partly Cloudy
2:20 AM 60.8 °F 48.2 °F 63% 29.77 in 6.2 mi South 15.0 mph - N/A   Partly Cloudy
2:50 AM 60.8 °F 50.0 °F 68% 29.77 in 6.2 mi South 12.7 mph - N/A   Partly Cloudy
3:20 AM 60.8 °F 48.2 °F 63% 29.77 in 6.2 mi South 15.0 mph - N/A   Partly Cloudy
3:50 AM 60.8 °F 46.4 °F 59% 29.77 in 6.2 mi SSW 11.5 mph - N/A   Partly Cloudy
4:20 AM 60.8 °F 46.4 °F 59% 29.77 in 6.2 mi SSW 20.7 mph - N/A   Partly Cloudy
4:50 AM 60.8 °F 48.2 °F 63% 29.77 in 6.2 mi South 19.6 mph - N/A   Partly Cloudy
5:20 AM 60.8 °F 48.2 °F 63% 29.74 in 6.2 mi SSW 17.3 mph - N/A   Partly Cloudy
5:50 AM 59.0 °F 50.0 °F 72% 29.74 in 6.2 mi SSW 15.0 mph - N/A   Partly Cloudy
6:20 AM 62.6 °F 41.0 °F 45% 29.74 in 6.2 mi South 20.7 mph 32.2 mph N/A   Partly Cloudy
6:50 AM 62.6 °F 39.2 °F 42% 29.74 in 6.2 mi South 19.6 mph - N/A   Partly Cloudy
7:20 AM 64.4 °F 41.0 °F 42% 29.74 in 6.2 mi South 18.4 mph 29.9 mph N/A   Partly Cloudy
7:50 AM 64.4 °F 41.0 °F 42% 29.74 in 6.2 mi SSW 18.4 mph 33.4 mph N/A   Scattered Clouds
8:20 AM 64.4 °F 42.8 °F 45% 29.74 in 6.2 mi South 19.6 mph - N/A   Scattered Clouds
8:50 AM 62.6 °F 42.8 °F 48% 29.74 in 6.2 mi South 8.1 mph - N/A   Scattered Clouds
9:20 AM 62.6 °F 42.8 °F 48% 29.74 in 6.2 mi SSW 10.4 mph - N/A   Scattered Clouds
9:50 AM 64.4 °F 42.8 °F 45% 29.74 in 6.2 mi SSW 17.3 mph - N/A   Mostly Cloudy
10:20 AM 64.4 °F 48.2 °F 56% 29.74 in 6.2 mi South 17.3 mph - N/A   Mostly Cloudy
10:50 AM 64.4 °F 48.2 °F 56% 29.74 in 6.2 mi South 19.6 mph - N/A   Light Drizzle
11:20 AM 62.6 °F 51.8 °F 68% 29.77 in 6.2 mi South 13.8 mph - N/A   Mostly Cloudy
11:50 AM 62.6 °F 51.8 °F 68% 29.74 in 6.2 mi South 17.3 mph - N/A   Mostly Cloudy
12:20 PM 62.6 °F 55.4 °F 77% 29.74 in 6.2 mi SSW 6.9 mph - N/A   Mostly Cloudy
12:50 PM 64.4 °F 53.6 °F 68% 29.71 in 6.2 mi SSW 9.2 mph - N/A   Light Drizzle
1:20 PM 62.6 °F 53.6 °F 72% 29.71 in 6.2 mi East 9.2 mph - N/A   Light Drizzle
1:50 PM 60.8 °F 53.6 °F 77% 29.71 in 6.2 mi ENE 8.1 mph - N/A   Drizzle
2:20 PM 60.8 °F 53.6 °F 77% 29.71 in 6.2 mi NE 8.1 mph - N/A   Partly Cloudy
2:50 PM 64.4 °F 53.6 °F 68% 29.68 in 6.2 mi Variable 3.5 mph 18.4 mph N/A   Partly Cloudy
3:20 PM 68.0 °F 53.6 °F 60% 29.68 in 6.2 mi South 13.8 mph - N/A   Partly Cloudy
3:50 PM 68.0 °F 53.6 °F 60% 29.68 in 6.2 mi SSW 13.8 mph - N/A   Scattered Clouds
4:20 PM 66.2 °F 53.6 °F 64% 29.65 in 6.2 mi SSW 16.1 mph - N/A   Scattered Clouds
4:50 PM 66.2 °F 51.8 °F 60% 29.65 in 6.2 mi SSW 13.8 mph - N/A   Scattered Clouds
5:20 PM 66.2 °F 51.8 °F 60% 29.65 in 6.2 mi SSW 12.7 mph - N/A   Light Drizzle
5:50 PM 66.2 °F 53.6 °F 64% 29.65 in 6.2 mi South 12.7 mph - N/A   Mostly Cloudy
6:20 PM 68.0 °F 53.6 °F 60% 29.65 in 6.2 mi SSW 11.5 mph - N/A   Mostly Cloudy
6:50 PM 66.2 °F 51.8 °F 60% 29.65 in 6.2 mi SSW 12.7 mph - N/A   Mostly Cloudy
7:20 PM 64.4 °F 53.6 °F 68% 29.65 in 6.2 mi SSW 6.9 mph - N/A   Mostly Cloudy
7:50 PM 64.4 °F 53.6 °F 68% 29.65 in 6.2 mi SSW 5.8 mph - N/A   Mostly Cloudy
8:20 PM 62.6 °F 55.4 °F 77% 29.65 in 6.2 mi NE 6.9 mph - N/A   Mostly Cloudy
8:50 PM 60.8 °F 55.4 °F 82% 29.68 in 6.2 mi East 8.1 mph - N/A   Mostly Cloudy
9:20 PM 60.8 °F 53.6 °F 77% 29.65 in 6.2 mi East 9.2 mph - N/A   Mostly Cloudy
9:50 PM 60.8 °F 55.4 °F 82% 29.74 in 4.3 mi WNW 9.2 mph - N/A Rain Rain
10:20 PM 59.0 °F 55.4 °F 88% 29.74 in 3.7 mi West 11.5 mph - N/A Rain Rain
10:50 PM 59.0 °F 55.4 °F 88% 29.74 in 3.7 mi South 9.2 mph - N/A Rain Rain
11:20 PM 57.2 °F 55.4 °F 94% 29.68 in 5.6 mi South 9.2 mph - N/A   Drizzle
11:50 PM 59.0 °F 53.6 °F 82% 29.65 in 6.2 mi South 15.0 mph - N/A   Mostly Cloudy